Regional Weather Roundup
Issued by NWS

Home | Current Version | Previous Version | Graphics & Text | Print | Product List | Glossary On
Versions: 1 2 3 4 5 6 7 8 9 10 11 12 13 14 15 16 17 18 19 20 21 22 23 24 25 26 27 28 29 30 31 32 33 34 35 36 37 38 39 40 41 42 43 44 45 46 47 48 49 50
000
ASUS43 KIND 220409
RWRIN

WEATHER ROUNDUP FOR INDIANA
NATIONAL WEATHER SERVICE INDIANAPOLIS IN
1200 AM EDT TUE JUL 22 2014

NOTE: "FAIR" INDICATES FEW OR NO CLOUDS BELOW 12,000 FEET WITH NO
SIGNIFICANT WEATHER AND/OR OBSTRUCTIONS TO VISIBILITY.

* - STATION DOES NOT REPORT WEATHER SUCH AS PRECIPITATION OR FOG.

+ - STATION NOT QUALITY CONTROLLED BY THE NATIONAL WEATHER SERVICE.
    USE DATA WITH CAUTION...ESPECIALLY DEWPOINT AND RELATIVE
    HUMIDITY OBSERVATIONS.

INZ001>003-010>013-019-020-220500-
NORTHWEST INDIANA

CITY           SKY/WX    TMP DP  RH WIND       PRES   REMARKS
GARY /AIRPORT/ CLEAR     72  67  83 S3        30.08S
KNOX *+        CLEAR     65  61  89 CALM      30.09S
LA PORTE +     CLEAR     67  63  86 CALM      30.09F
MICHIGAN CITY+ CLEAR     68  64  88 CALM      30.08F
MONTICELLO +   CLEAR     67  66  96 CALM      30.09S
RENSSELAER +   CLEAR     64  64 100 CALM      30.09F FOG
VALPARAISO     CLEAR     71  64  78 S5        30.09F

$$

LMZ046-743>745-220500-
SOUTHERN LAKE MICHIGAN

STATION/POSITION TIME  TEMP WIND        PRES
                       AIR  DIR/SP/G
                 (UTC) (F)  (DEG/KT/KT) (MB)
BURNS HARBOR     0400   74  200/  6/  8 1019.0S
MICHIGAN CITY    0400   75  150/  7/ 10   N/A

$$

INZ004-005-014>016-021>024-220500-
NORTH CENTRAL INDIANA

CITY           SKY/WX    TMP DP  RH WIND       PRES   REMARKS
GOSHEN         CLEAR     70  65  84 E3        30.10S
LOGANSPORT +   CLEAR     64  63  94 CALM      30.11S
PERU/GRISSOM   CLEAR     69  67  95 CALM      30.10F
ROCHESTER +    CLEAR     70  64  83 CALM      30.10F
SOUTH BEND     CLEAR     72  64  76 SW3       30.10S
WARSAW +       CLEAR     64  63  94 CALM      30.11S

$$

INZ006>009-017-018-025>027-220500-
NORTHEAST INDIANA

CITY           SKY/WX    TMP DP  RH WIND       PRES   REMARKS
ANGOLA *+      CLEAR     66  66 100 CALM      30.12S
AUBURN +       CLEAR     68  61  77 CALM      30.12S
FORT WAYNE     CLEAR     71  64  78 CALM      30.11F
HUNTINGTON +   CLEAR     67  65  94 CALM      30.11S

$$

INZ028-029-035-036-043>045-051>053-220500-
WEST CENTRAL INDIANA

CITY           SKY/WX    TMP DP  RH WIND       PRES   REMARKS
GREENCASTLE +  CLEAR     68  64  88 CALM      30.11S
LAFAYETTE      CLEAR     68  65  90 CALM      30.09F
TERRE HAUTE    CLEAR     66  64  93 CALM      30.09F

$$

INZ030>032-037>040-046>048-054>057-064-065-220500-
CENTRAL INDIANA

CITY           SKY/WX    TMP DP  RH WIND       PRES   REMARKS
CP ATTERBURY + FOG       66  64  94 CALM      30.11S VSB 1/2
FRANKFORT +    CLEAR    N/A N/A N/A CALM      30.12
GREENWOOD *+   CLEAR     70  68  94 CALM      30.11
INDIANAPOLIS   CLEAR     76  63  64 CALM      30.10S
-EAGLE CREEK   PTCLDY    73  65  75 CALM      30.10S
KOKOMO *+      CLEAR     66  64  94 CALM      30.11S
MARION +       CLEAR     65  63  93 CALM      30.12S
MT COMFORT *+  CLEAR     66 N/A N/A CALM      30.12S
SHELBYVILLE    CLEAR     69  64  84 E3        30.10F
ZIONSVILLE +   CLEAR     69  64  84 CALM      30.12S

$$

INZ033-034-041-042-049-050-058-059-220500-
EAST CENTRAL INDIANA

CITY           SKY/WX    TMP DP  RH WIND       PRES   REMARKS
MUNCIE         CLEAR     67  61  81 CALM      30.12S

$$

INZ060-061-067>069-081>083-085>088-220500-
SOUTHWEST INDIANA

CITY           SKY/WX    TMP DP  RH WIND       PRES   REMARKS
EVANSVILLE     CLEAR     74  67  78 CALM      30.08S
HUNTINGBURG *+ CLEAR     72  66  83 CALM      30.09S
WASHINGTON +   CLEAR     67  66  98 CALM      30.08S

$$

INZ062-063-066-070>080-084-089>092-220500-
SOUTH CENTRAL AND SOUTHEAST INDIANA

CITY           SKY/WX    TMP DP  RH WIND       PRES   REMARKS
BLOOMINGTON    CLEAR     65  63  93 CALM      30.11S FOG
SEYMOUR +      CLEAR     64  57  77 CALM      30.10  HAZE

$$



USA.gov is the U.S. government's official web portal to all federal, state and local government web resources and services.